N5TM-4 Weather Reports


Display with metric or nautical units.
time (UTC)temp
F
wind
direction
speed
MPH
gust
MPH
rain 1hr
in
rain 24hr
in
rain mn
in
humidity
%
barometer
mb
20260905193517 96 130 4.0 10.0 0.00 0.00 0.00 49 1012.0
20260905193017 98 175 4.0 10.0 0.00 0.00 0.00 47 1012.1
20260905192520 98 162 2.0 7.0 0.00 0.00 0.00 45 1012.2
20260905192015 99 137 1.0 8.0 0.00 0.00 0.00 44 1012.2
20260905191515 98 159 1.0 8.0 0.00 0.00 0.00 46 1012.3
20260905191015 98 158 3.0 8.0 0.00 0.00 0.00 46 1012.3
20260905190517 98 162 1.0 6.0 0.00 0.00 0.00 45 1012.5
20260905190026 98 159 1.0 5.0 0.00 0.00 0.00 46 1012.5
20260905185513 97 20 1.0 5.0 0.00 0.01 0.00 48 1012.5
20260905185015 96 157 1.0 5.0 0.00 0.01 0.00 48 1012.6
20260905184513 97 27 1.0 4.0 0.00 0.01 0.00 47 1012.6
20260905184012 96 106 2.0 4.0 0.00 0.01 0.00 47 1012.7
20260905183512 96 62 1.0 4.0 0.00 0.01 0.00 49 1012.8
20260905183015 96 22 1.0 4.0 0.00 0.01 0.00 50 1012.8
20260905182512 96 5 1.0 3.0 0.00 0.01 0.00 52 1012.9
20260905182012 96 36 1.0 5.0 0.00 0.01 0.00 55 1013.1
20260905181513 96 34 2.0 5.0 0.00 0.01 0.00 54 1013.2
20260905181011 97 355 1.0 4.0 0.00 0.01 0.00 56 1013.5
20260905180511 97 355 1.0 4.0 0.00 0.01 0.00 49 1013.4
20260905180012 97 44 0.0 5.0 0.00 0.01 0.00 49 1013.5
20260905175510 98 45 1.0 5.0 0.00 0.01 0.00 47 1013.7
20260905175009 100 325 2.0 6.0 0.00 0.01 0.00 45 1013.7
20260905174510 101 332 1.0 6.0 0.00 0.01 0.00 44 1013.8
20260905174010 102 307 3.0 5.0 0.00 0.01 0.00 44 1014.0
20260905173509 102 315 2.0 5.0 0.00 0.01 0.00 43 1014.0
20260905173007 101 218 0.0 4.0 0.00 0.01 0.00 44 1013.9
20260905172505 100 197 0.0 3.0 0.00 0.01 0.00 46 1013.9
20260905172005 97 275 1.0 5.0 0.00 0.01 0.00 49 1014.1
20260905171504 96 129 2.0 5.0 0.00 0.01 0.00 49 1014.1
20260905171005 96 17 1.0 5.0 0.00 0.01 0.00 48 1014.1
20260905170504 96 21 2.0 5.0 0.00 0.01 0.00 52 1014.1
20260905170008 95 111 2.0 3.0 0.00 0.01 0.00 51 1014.2
20260905165504 94 80 1.0 3.0 0.00 0.13 0.00 53 1014.2
20260905165003 94 103 2.0 3.0 0.00 0.13 0.00 53 1014.3
20260905164502 94 5 1.0 3.0 0.00 0.13 0.00 55 1014.4
20260905164003 93 84 1.0 2.0 0.00 0.13 0.00 54 1014.4
20260905163504 93 329 0.0 2.0 0.00 0.13 0.00 58 1014.5
20260905163003 93 329 0.0 2.0 0.00 0.13 0.00 57 1014.5
20260905162501 94 329 0.0 2.0 0.00 0.13 0.00 57 1014.5
20260905162002 94 329 0.0 2.0 0.00 0.13 0.00 56 1014.5
20260905161502 94 329 0.0 2.0 0.00 0.13 0.00 57 1014.5
20260905161002 95 329 1.0 3.0 0.00 0.13 0.00 55 1014.4
20260905160501 96 327 1.0 3.0 0.00 0.13 0.00 54 1014.4
20260905160006 96 327 1.0 4.0 0.00 0.13 0.00 55 1014.3
20260905155501 96 327 1.0 4.0 0.00 0.13 0.00 53 1014.4
20260905155001 97 323 1.0 3.0 0.00 0.13 0.00 52 1014.4
20260905154501 98 323 1.0 3.0 0.00 0.13 0.00 52 1014.5
20260905154001 99 323 1.0 3.0 0.00 0.13 0.00 51 1014.4
20260905153604 100 327 1.0 4.0 0.00 0.13 0.00 52 1014.5
20260905153059 99 327 1.0 4.0 0.00 0.13 0.00 54 1014.4
20260905152558 98 5 2.0 4.0 0.00 0.13 0.00 56 1014.4
20260905152056 97 321 1.0 4.0 0.00 0.13 0.00 59 1014.4
20260905151555 96 266 0.0 3.0 0.00 0.13 0.00 62 1014.5
20260905151054 94 261 0.0 3.0 0.00 0.13 0.00 63 1014.5
20260905150554 93 196 0.0 3.0 0.00 0.13 0.00 66 1014.5
20260905150052 91 194 0.0 3.0 0.00 0.13 0.00 68 1014.5
20260905145552 91 195 0.0 3.0 0.00 0.13 0.00 67 1014.5
20260905145051 92 195 1.0 3.0 0.00 0.13 0.00 66 1014.5
20260905144550 92 195 0.0 2.0 0.00 0.13 0.00 68 1014.5
20260905144048 92 195 0.0 2.0 0.00 0.13 0.00 68 1014.5
20260905143548 91 196 0.0 0.0 0.00 0.13 0.00 70 1014.5
20260905143046 90 196 0.0 0.0 0.00 0.13 0.00 71 1014.4
20260905142548 89 194 0.0 0.0 0.00 0.13 0.00 74 1014.4
20260905142045 88 194 0.0 0.0 0.00 0.13 0.00 74 1014.4
20260905141545 89 196 0.0 0.0 0.00 0.13 0.00 73 1014.4
20260905141044 89 196 0.0 0.0 0.00 0.13 0.00 73 1014.4
20260905140543 89 196 0.0 0.0 0.00 0.13 0.00 73 1014.3
20260905140042 89 196 0.0 0.0 0.00 0.13 0.00 75 1014.3
20260905135543 87 188 0.0 0.0 0.00 0.13 0.00 77 1014.2
20260905135038 87 188 0.0 0.0 0.00 0.13 0.00 79 1014.2
20260905134537 86 188 0.0 0.0 0.00 0.13 0.00 80 1014.2
20260905134035 85 188 0.0 0.0 0.00 0.13 0.00 82 1014.3
20260905133533 84 188 0.0 0.0 0.00 0.13 0.00 84 1014.3
20260905133032 83 188 0.0 0.0 0.00 0.13 0.00 86 1014.2
20260905132531 82 188 0.0 0.0 0.00 0.13 0.00 89 1014.2
20260905132031 81 188 0.0 0.0 0.00 0.13 0.00 90 1014.3
20260905131528 80 188 0.0 0.0 0.00 0.13 0.00 91 1014.2
20260905131027 79 188 0.0 0.0 0.00 0.13 0.00 92 1014.2
20260905130529 79 188 0.0 0.0 0.00 0.13 0.00 93 1014.1
20260905130026 78 188 0.0 0.0 0.00 0.13 0.00 93 1014.1
20260905125526 78 188 0.0 2.0 0.00 0.13 0.00 93 1014.0
20260905125026 77 188 0.0 2.0 0.00 0.13 0.00 93 1014.0
20260905124525 77 188 0.0 0.0 0.00 0.13 0.00 93 1013.9
20260905124025 77 188 0.0 0.0 0.00 0.13 0.00 93 1013.8
20260905123523 76 188 0.0 0.0 0.00 0.13 0.00 92 1013.7
20260905123023 76 188 0.0 0.0 0.00 0.13 0.00 92 1013.7
20260905122524 76 188 0.0 0.0 0.00 0.13 0.00 92 1013.7
20260905122028 76 188 0.0 0.0 0.00 0.13 0.00 92 1013.7
20260905121522 76 188 0.0 0.0 0.00 0.13 0.00 92 1013.7
20260905121021 76 188 0.0 0.0 0.00 0.13 0.00 92 1013.6
20260905120521 76 188 0.0 0.0 0.00 0.13 0.00 91 1013.5
20260905120035 76 188 0.0 0.0 0.00 0.13 0.00 91 1013.5
20260905115519 76 188 0.0 0.0 0.00 0.14 0.00 91 1013.4
20260905115020 76 188 0.0 0.0 0.00 0.14 0.00 91 1013.3
20260905114518 76 188 0.0 0.0 0.00 0.14 0.00 91 1013.2
20260905114019 76 188 0.0 0.0 0.00 0.14 0.00 91 1013.2
20260905113523 76 188 0.0 0.0 0.00 0.14 0.00 91 1013.1
20260905113018 76 188 0.0 0.0 0.00 0.14 0.00 91 1013.0
20260905112519 76 188 0.0 0.0 0.00 0.14 0.00 91 1013.0
20260905112018 76 188 0.0 0.0 0.00 0.14 0.00 91 1013.0
20260905111525 76 188 0.0 0.0 0.00 0.14 0.00 91 1013.0
20260905111018 76 188 0.0 0.0 0.00 0.14 0.00 91 1012.9
20260905110521 76 188 0.0 0.0 0.00 0.14 0.00 91 1012.9
20260905110021 76 188 0.0 0.0 0.00 0.14 0.00 91 1012.8
20260905105519 76 188 0.0 0.0 0.00 0.14 0.00 91 1012.8
20260905105019 76 188 0.0 0.0 0.00 0.14 0.00 91 1012.8
20260905104516 77 188 0.0 0.0 0.00 0.14 0.00 91 1012.7
20260905104016 77 188 0.0 0.0 0.00 0.14 0.00 91 1012.7
20260905103518 77 188 0.0 0.0 0.00 0.14 0.00 91 1012.6
20260905103023 77 188 0.0 0.0 0.00 0.14 0.00 91 1012.7
20260905102515 77 188 0.0 0.0 0.00 0.14 0.00 90 1012.7
20260905102015 77 188 0.0 0.0 0.00 0.14 0.00 91 1012.8
20260905101515 77 188 0.0 0.0 0.00 0.14 0.00 90 1012.8
20260905101014 77 188 0.0 0.0 0.00 0.14 0.00 90 1012.9
20260905100514 77 188 0.0 0.0 0.00 0.14 0.00 90 1012.8
20260905100014 77 188 0.0 0.0 0.00 0.14 0.00 90 1012.7
20260905095513 77 188 0.0 0.0 0.00 0.14 0.00 90 1012.7
20260905095017 77 188 0.0 0.0 0.00 0.14 0.00 90 1012.7
20260905094515 77 188 0.0 0.0 0.00 0.14 0.00 90 1012.7
20260905094017 77 188 0.0 0.0 0.00 0.14 0.00 90 1012.6
20260905093513 77 188 0.0 0.0 0.00 0.14 0.00 90 1012.6
20260905093013 77 188 0.0 0.0 0.00 0.14 0.00 90 1012.6
20260905092512 77 188 0.0 0.0 0.00 0.14 0.00 89 1012.7
20260905092012 77 188 0.0 0.0 0.00 0.14 0.00 89 1012.7
20260905091512 77 188 0.0 0.0 0.00 0.14 0.00 89 1012.7
20260905091012 77 188 0.0 0.0 0.00 0.14 0.00 89 1012.7
20260905090511 77 188 0.0 0.0 0.00 0.14 0.00 89 1012.6
20260905090011 77 188 0.0 0.0 0.00 0.14 0.00 89 1012.6
20260905085509 77 188 0.0 0.0 0.00 0.14 0.00 89 1012.6
20260905085010 77 188 0.0 0.0 0.00 0.14 0.00 89 1012.6
20260905084509 77 188 0.0 0.0 0.00 0.14 0.00 89 1012.6
20260905084010 77 188 0.0 0.0 0.00 0.14 0.00 89 1012.5
20260905083513 77 188 0.0 0.0 0.00 0.14 0.00 89 1012.4
20260905083010 77 188 0.0 0.0 0.00 0.14 0.00 89 1012.5
20260905082508 77 188 0.0 0.0 0.00 0.14 0.00 89 1012.5
20260905082008 77 188 0.0 0.0 0.00 0.14 0.00 88 1012.6
20260905081507 77 188 0.0 0.0 0.00 0.14 0.00 88 1012.7
20260905081007 78 188 0.0 0.0 0.00 0.14 0.00 88 1012.7
20260905080510 78 188 0.0 0.0 0.00 0.14 0.00 88 1012.7
20260905080006 78 188 0.0 0.0 0.00 0.14 0.00 88 1012.6
20260905075507 78 188 0.0 0.0 0.00 0.14 0.00 88 1012.6
20260905075008 78 188 0.0 0.0 0.00 0.14 0.00 88 1012.6
20260905074506 78 188 0.0 0.0 0.00 0.14 0.00 88 1012.7
20260905074004 78 188 0.0 0.0 0.00 0.14 0.00 88 1012.8
20260905073504 78 188 0.0 0.0 0.00 0.14 0.00 88 1012.8
20260905073003 78 188 0.0 0.0 0.00 0.14 0.00 88 1012.9
20260905072504 78 188 0.0 0.0 0.00 0.14 0.00 88 1013.0
20260905072002 78 188 0.0 0.0 0.00 0.14 0.00 88 1013.1
20260905071502 78 188 0.0 0.0 0.00 0.14 0.00 88 1013.1
20260905071001 79 188 0.0 0.0 0.00 0.14 0.00 88 1013.1
20260905070501 79 188 0.0 0.0 0.00 0.14 0.00 88 1013.1
20260905065600 79 188 0.0 0.0 0.00 0.14 0.00 88 1013.2
20260905065103 79 188 0.0 0.0 0.00 0.14 0.00 88 1013.1
20260905064621 79 188 0.0 0.0 0.00 0.14 0.00 88 1013.0
20260905064058 79 188 0.0 0.0 0.00 0.14 0.00 88 1013.0
20260905063557 79 188 0.0 0.0 0.00 0.14 0.00 88 1013.1
20260905063101 79 188 0.0 0.0 0.00 0.14 0.00 88 1013.2
20260905062556 79 188 0.0 0.0 0.00 0.14 0.00 88 1013.3
20260905062056 79 188 0.0 0.0 0.00 0.14 0.00 88 1013.4
20260905061556 79 188 0.0 0.0 0.00 0.14 0.00 88 1013.3
20260905061055 79 188 0.0 0.0 0.00 0.14 0.00 88 1013.4
20260905060554 79 188 0.0 0.0 0.00 0.14 0.00 88 1013.4
20260905060055 79 188 0.0 0.0 0.00 0.14 0.00 88 1013.3
20260905055556 79 188 0.0 0.0 0.00 0.14 0.00 88 1013.3
20260905055154 79 188 0.0 0.0 0.00 0.14 0.00 88 1013.4
20260905054554 79 188 0.0 0.0 0.00 0.14 0.00 88 1013.4
20260905054056 80 188 0.0 0.0 0.00 0.14 0.00 88 1013.3
20260905053552 80 188 0.0 0.0 0.00 0.14 0.00 87 1013.4
20260905053052 80 188 0.0 0.0 0.00 0.14 0.00 87 1013.4
20260905052551 80 188 0.0 0.0 0.00 0.14 0.00 87 1013.4
20260905052050 80 188 0.0 0.0 0.00 0.14 0.00 87 1013.4
20260905051550 80 188 0.0 0.0 0.00 0.14 0.00 87 1013.4
20260905051048 80 188 0.0 0.0 0.00 0.14 0.00 86 1013.3
20260905050548 80 188 0.0 0.0 0.00 0.14 0.00 86 1013.4
20260905050054 80 188 0.0 0.0 0.00 0.14 0.00 86 1013.4
20260905045546 80 188 0.0 0.0 0.00 0.14 0.14 86 1013.4
20260905045046 80 188 0.0 0.0 0.00 0.14 0.14 86 1013.4
20260905044547 80 188 0.0 0.0 0.00 0.14 0.14 85 1013.4
20260905044049 81 188 0.0 3.0 0.00 0.14 0.14 85 1013.5
20260905043548 81 188 0.0 3.0 0.00 0.14 0.14 85 1013.4
20260905043046 81 188 0.0 2.0 0.00 0.14 0.14 85 1013.5
20260905042545 81 188 0.0 1.0 0.00 0.14 0.14 85 1013.5
20260905042046 81 188 0.0 1.0 0.00 0.14 0.14 84 1013.6
20260905041551 81 188 0.0 2.0 0.00 0.14 0.14 84 1013.6
20260905041045 81 188 0.0 2.0 0.00 0.14 0.14 84 1013.5
20260905040545 81 188 0.0 2.0 0.00 0.14 0.14 84 1013.5
20260905040045 81 188 0.0 4.0 0.00 0.14 0.14 83 1013.6
20260905035544 81 188 0.0 4.0 0.00 0.14 0.14 83 1013.7
20260905035045 81 170 0.0 6.0 0.00 0.14 0.14 83 1013.6
20260905034544 81 170 1.0 7.0 0.00 0.14 0.14 83 1013.7
20260905034048 81 171 0.0 7.0 0.00 0.14 0.14 83 1013.6
20260905033544 81 161 2.0 5.0 0.00 0.14 0.14 83 1013.7
20260905033044 81 167 2.0 6.0 0.00 0.14 0.14 83 1013.6
20260905032544 81 162 2.0 6.0 0.00 0.14 0.14 83 1013.6
20260905032044 81 146 2.0 6.0 0.00 0.14 0.14 82 1013.7
20260905031545 82 161 1.0 5.0 0.00 0.14 0.14 82 1013.7
20260905031043 82 160 1.0 5.0 0.00 0.14 0.14 82 1013.8
20260905030543 82 170 0.0 3.0 0.00 0.14 0.14 82 1013.8
20260905030043 82 170 1.0 3.0 0.00 0.14 0.14 81 1013.9
20260905025545 82 170 0.0 3.0 0.00 0.14 0.14 81 1013.8
20260905025043 82 170 0.0 3.0 0.00 0.14 0.14 80 1013.7
20260905024548 82 169 1.0 3.0 0.00 0.14 0.14 80 1013.6
20260905024042 82 169 1.0 3.0 0.00 0.14 0.14 79 1013.6
20260905023543 82 169 0.0 3.0 0.00 0.14 0.14 79 1013.5
20260905023042 82 169 1.0 4.0 0.00 0.14 0.14 78 1013.5
20260905022542 82 169 1.0 3.0 0.00 0.14 0.14 78 1013.4
20260905022042 82 169 1.0 2.0 0.00 0.14 0.14 77 1013.3
20260905021544 82 169 1.0 3.0 0.00 0.14 0.14 77 1013.3
20260905021041 82 169 1.0 3.0 0.00 0.14 0.14 77 1013.2
20260905020541 82 169 1.0 3.0 0.00 0.14 0.14 76 1013.1
20260905020041 82 170 0.0 2.0 0.00 0.14 0.14 76 1013.0
20260905015541 82 170 0.0 2.0 0.00 0.14 0.14 76 1013.1
20260905015043 82 170 0.0 4.0 0.00 0.14 0.14 75 1013.0
20260905014551 83 103 1.0 3.0 0.00 0.14 0.14 75 1012.9
20260905014040 83 92 1.0 3.0 0.00 0.14 0.14 75 1012.9
20260905013540 83 92 0.0 2.0 0.00 0.14 0.14 74 1012.8
20260905013040 83 92 0.0 4.0 0.00 0.14 0.14 74 1012.8
20260905012543 83 92 1.0 4.0 0.00 0.14 0.14 73 1012.7
20260905012039 83 101 1.0 6.0 0.00 0.14 0.14 72 1012.7
20260905011539 83 101 1.0 6.0 0.00 0.14 0.14 72 1012.6
20260905011039 83 86 1.0 4.0 0.00 0.14 0.14 71 1012.6
20260905010542 84 64 0.0 4.0 0.00 0.14 0.14 71 1012.7
20260905010039 84 88 0.0 6.0 0.00 0.14 0.14 70 1012.6
20260905005541 84 106 2.0 7.0 0.00 0.14 0.14 68 1012.6
20260905005038 85 108 2.0 9.0 0.00 0.14 0.14 68 1012.6
20260905004538 86 103 4.0 9.0 0.00 0.14 0.14 68 1012.8
20260905004038 87 90 3.0 7.0 0.00 0.14 0.14 68 1012.6
20260905003539 87 117 2.0 5.0 0.00 0.14 0.14 68 1012.6
20260905003038 87 128 2.0 6.0 0.00 0.14 0.14 68 1012.5
20260905002537 87 156 2.0 6.0 0.00 0.14 0.14 68 1012.2
20260905002037 87 157 2.0 6.0 0.00 0.14 0.14 68 1012.1
20260905001537 87 153 2.0 5.0 0.00 0.14 0.14 68 1012.1
20260905001037 88 167 2.0 6.0 0.00 0.14 0.14 68 1012.0
20260905000541 88 182 1.0 4.0 0.00 0.14 0.14 68 1011.9
20260905000038 88 206 1.0 4.0 0.00 0.14 0.14 68 1011.9
20260904235536 88 167 2.0 7.0 0.00 0.14 0.14 67 1012.0
20260904235038 88 155 2.0 9.0 0.00 0.14 0.14 67 1012.0
20260904234536 88 165 2.0 9.0 0.00 0.14 0.14 66 1012.0
20260904234038 88 150 2.0 8.0 0.00 0.14 0.14 65 1012.0
20260904233536 89 140 3.0 8.0 0.00 0.14 0.14 63 1012.0
20260904233036 89 163 0.0 5.0 0.00 0.14 0.14 63 1012.0
20260904232536 89 161 1.0 5.0 0.00 0.14 0.14 63 1012.0
20260904232035 89 132 1.0 5.0 0.00 0.14 0.14 62 1011.9
20260904231535 89 153 2.0 7.0 0.00 0.14 0.14 62 1011.8
20260904231035 90 152 3.0 7.0 0.00 0.14 0.14 61 1011.8
20260904230535 90 173 2.0 5.0 0.00 0.14 0.14 61 1011.9
20260904230036 91 134 2.0 7.0 0.00 0.14 0.14 60 1011.9
20260904225535 91 200 4.0 7.0 0.00 0.14 0.14 58 1011.9
20260904225034 92 188 3.0 6.0 0.00 0.14 0.14 56 1011.9
20260904224533 92 176 1.0 5.0 0.00 0.14 0.14 56 1012.0
20260904224033 92 197 1.0 3.0 0.00 0.14 0.14 55 1012.0
20260904223533 92 202 0.0 3.0 0.00 0.14 0.14 55 1012.0
20260904223043 92 202 1.0 4.0 0.00 0.14 0.14 56 1012.0
20260904222533 91 202 1.0 4.0 0.00 0.14 0.14 56 1012.0
20260904222032 91 187 2.0 4.0 0.00 0.14 0.14 56 1012.0
20260904221543 91 15 1.0 4.0 0.00 0.14 0.14 57 1012.1
20260904221030 91 182 0.0 7.0 0.00 0.14 0.14 58 1012.2
20260904220530 91 153 3.0 7.0 0.00 0.14 0.14 58 1012.2
20260904220030 91 51 1.0 7.0 0.00 0.14 0.14 59 1012.2
20260904215529 91 141 4.0 7.0 0.00 0.19 0.14 59 1012.2
20260904215029 91 48 1.0 3.0 0.00 0.19 0.14 59 1012.2
20260904214528 91 103 1.0 3.0 0.00 0.19 0.14 60 1012.2
20260904214028 91 30 1.0 5.0 0.00 0.19 0.14 60 1012.2
20260904213529 90 173 2.0 5.0 0.00 0.19 0.14 60 1012.3
20260904213027 90 106 2.0 4.0 0.00 0.19 0.14 60 1012.4
20260904212526 90 134 1.0 6.0 0.00 0.19 0.14 60 1012.6
20260904212026 91 146 2.0 6.0 0.00 0.19 0.14 60 1012.6
20260904211533 90 167 2.0 7.0 0.00 0.19 0.14 60 1012.6
20260904211025 91 167 2.0 7.0 0.00 0.19 0.14 61 1012.6
20260904210525 90 26 0.0 4.0 0.00 0.19 0.14 62 1012.6
20260904210025 90 109 2.0 4.0 0.00 0.19 0.14 62 1012.7
20260904205525 91 163 1.0 6.0 0.00 0.26 0.14 62 1012.7
20260904205028 91 174 2.0 6.0 0.00 0.26 0.14 62 1012.8
20260904204527 91 121 1.0 7.0 0.00 0.26 0.14 60 1012.9
20260904204024 91 144 2.0 7.0 0.00 0.26 0.14 61 1013.1
20260904203524 91 163 2.0 7.0 0.00 0.26 0.14 61 1013.2
20260904203030 90 142 1.0 4.0 0.00 0.26 0.14 65 1013.3
20260904202522 89 200 1.0 4.0 0.00 0.26 0.14 64 1013.3
20260904202025 89 76 0.0 7.0 0.00 0.26 0.14 66 1013.4
20260904201529 89 139 2.0 7.0 0.00 0.26 0.14 67 1013.4
20260904201022 88 301 1.0 4.0 0.00 0.26 0.14 72 1013.5
20260904200522 87 301 1.0 4.0 0.00 0.26 0.14 72 1013.4
20260904200022 86 5 1.0 4.0 0.00 0.26 0.14 72 1013.5
20260904195522 86 142 0.0 4.0 0.01 0.31 0.14 72 1013.6
20260904195023 85 92 0.0 3.0 0.01 0.31 0.14 74 1013.7
20260904194550 84 95 0.0 6.0 0.01 0.31 0.14 77 1013.9
20260904194021 83 63 2.0 6.0 0.01 0.31 0.14 78 1014.0